Вернуться в каталог

PEGASUS DEB

АктивенPO
NORAD 39310·DEBRIS·🇺🇸 United States

Запущен May 19, 1994 с Vandenberg Space Force Base

Loading…

Ближайшие Пролёты (ближайшие 24 часа)

TLE

УстаревающийSource: Space-Track

Эпоха: Sep 6, 2026, 12:49 UTC

1 39310U 94029AEV 26249.53415515  .00001912  00000-0  31719-3 0  9999
2 39310  81.8163 341.3543 0230207  77.4983 285.1861 14.53599216855992

Отслеживайте PEGASUS DEB в реальном времени с AllMySat

Download on the App Store